Radiation Dose at Monitoring Post of Fukushima Daini Nuclear Power Station
Date,Time,MP-1(microSv/h),MP-2(microSv/h),MP-3(microSv/h),MP-4(microSv/h),MP-5(microSv/h),MP-6(microSv/h),MP-7(microSv/h),Wind Direction,Wind Velocity(m/s),Rain
2018/12/28,00:00,0.225,0.193,0.312,0.292,0.277,0.156,0.094,west-northwest,8.9,No
2018/12/28,00:10,0.225,0.193,0.311,0.292,0.279,0.155,0.094,west-northwest,7.5,No
2018/12/28,00:20,0.224,0.194,0.313,0.291,0.276,0.156,0.095,west-northwest,8.7,No
2018/12/28,00:30,0.224,0.192,0.312,0.292,0.277,0.156,0.095,northwest,8.4,No
2018/12/28,00:40,0.224,0.191,0.311,0.292,0.277,0.155,0.095,northwest,8.7,No
2018/12/28,00:50,0.225,0.192,0.313,0.293,0.277,0.155,0.094,west-northwest,11.8,No
2018/12/28,01:00,0.224,0.192,0.312,0.292,0.276,0.155,0.095,northwest,12.2,No
2018/12/28,01:10,0.225,0.192,0.312,0.291,0.277,0.155,0.095,west-northwest,11.8,No
2018/12/28,01:20,0.225,0.193,0.312,0.292,0.278,0.156,0.095,west-northwest,10.7,No
2018/12/28,01:30,0.224,0.193,0.313,0.292,0.278,0.156,0.095,northwest,8.4,No
2018/12/28,01:40,0.225,0.194,0.312,0.291,0.280,0.156,0.094,northwest,6.2,No
2018/12/28,01:50,0.225,0.192,0.315,0.293,0.278,0.156,0.095,north-northwest,3.8,No
2018/12/28,02:00,0.223,0.193,0.312,0.292,0.278,0.155,0.095,north-northwest,5.1,No
2018/12/28,02:10,0.225,0.193,0.312,0.292,0.278,0.155,0.094,north-northwest,5.5,No
2018/12/28,02:20,0.224,0.194,0.312,0.291,0.277,0.156,0.095,north-northwest,5.3,No
2018/12/28,02:30,0.225,0.193,0.312,0.291,0.278,0.156,0.095,northwest,5.5,No
2018/12/28,02:40,0.224,0.193,0.312,0.292,0.278,0.157,0.095,north-northwest,5.7,No
2018/12/28,02:50,0.224,0.192,0.312,0.292,0.277,0.155,0.095,north-northwest,5.5,No
2018/12/28,03:00,0.225,0.192,0.312,0.292,0.277,0.156,0.095,north-northwest,4.4,No
2018/12/28,03:10,0.223,0.193,0.312,0.291,0.276,0.156,0.095,northwest,3.0,No
2018/12/28,03:20,0.224,0.192,0.310,0.291,0.277,0.155,0.095,northwest,1.9,No
2018/12/28,03:30,0.224,0.192,0.312,0.292,0.277,0.155,0.095,northwest,0.8,No
2018/12/28,03:40,0.224,0.192,0.311,0.292,0.277,0.156,0.095,northeast,0.6,No
2018/12/28,03:50,0.223,0.193,0.311,0.293,0.276,0.156,0.094,west,2.1,No
2018/12/28,04:00,0.223,0.193,0.311,0.291,0.276,0.155,0.094,west-northwest,0.8,No
2018/12/28,04:10,0.224,0.192,0.311,0.291,0.277,0.156,0.094,northwest,1.5,No
2018/12/28,04:20,0.225,0.193,0.310,0.292,0.276,0.155,0.094,west,3.8,No
2018/12/28,04:30,0.224,0.192,0.313,0.291,0.276,0.155,0.094,west,6.8,No
2018/12/28,04:40,0.224,0.193,0.310,0.293,0.277,0.155,0.095,west,10.9,No
2018/12/28,04:50,0.224,0.192,0.311,0.292,0.275,0.155,0.094,west,12.2,No
2018/12/28,05:00,0.222,0.192,0.312,0.291,0.276,0.155,0.094,west,12.3,No
2018/12/28,05:10,0.224,0.192,0.311,0.292,0.276,0.156,0.094,west,12.2,No
2018/12/28,05:20,0.224,0.192,0.312,0.291,0.276,0.155,0.094,west,12.9,No
2018/12/28,05:30,0.224,0.192,0.311,0.290,0.276,0.156,0.094,west-northwest,10.6,No
2018/12/28,05:40,0.224,0.190,0.312,0.290,0.277,0.155,0.095,west,13.3,No
2018/12/28,05:50,0.224,0.191,0.309,0.291,0.276,0.156,0.094,west,13.6,No
2018/12/28,06:00,0.224,0.192,0.311,0.292,0.276,0.156,0.094,west,16.2,No
2018/12/28,06:10,0.224,0.191,0.311,0.292,0.275,0.155,0.095,west-northwest,16.0,No
2018/12/28,06:20,0.223,0.192,0.310,0.291,0.277,0.155,0.095,west-northwest,15.1,No
2018/12/28,06:30,0.224,0.192,0.312,0.291,0.278,0.156,0.094,west-northwest,16.6,No
2018/12/28,06:40,0.224,0.191,0.312,0.291,0.278,0.156,0.094,west,18.9,No
2018/12/28,06:50,0.223,0.193,0.312,0.292,0.278,0.155,0.095,west,17.7,No
2018/12/28,07:00,0.223,0.192,0.313,0.290,0.280,0.155,0.095,west,17.8,No
2018/12/28,07:10,0.224,0.192,0.311,0.293,0.278,0.155,0.094,west,18.7,No
2018/12/28,07:20,0.223,0.192,0.313,0.291,0.278,0.155,0.094,west-northwest,14.7,No
2018/12/28,07:30,0.224,0.193,0.312,0.291,0.280,0.156,0.095,west-northwest,14.3,No
2018/12/28,07:40,0.224,0.193,0.312,0.291,0.279,0.155,0.094,west,14.6,No
2018/12/28,07:50,0.223,0.192,0.313,0.291,0.279,0.155,0.095,west,15.3,No
2018/12/28,08:00,0.225,0.193,0.312,0.292,0.279,0.155,0.095,west,13.7,No
2018/12/28,08:10,0.225,0.193,0.313,0.290,0.280,0.157,0.094,west,12.0,No
2018/12/28,08:20,0.223,0.193,0.312,0.292,0.281,0.156,0.094,west,14.7,No
2018/12/28,08:30,0.225,0.192,0.313,0.290,0.278,0.156,0.094,west,12.5,No
2018/12/28,08:40,0.224,0.192,0.312,0.291,0.279,0.155,0.094,west,13.1,No
2018/12/28,08:50,0.225,0.193,0.312,0.292,0.278,0.154,0.094,west,11.5,No
2018/12/28,09:00,0.224,0.193,0.313,0.291,0.279,0.155,0.094,west,13.4,No
2018/12/28,09:10,0.224,0.193,0.312,0.290,0.280,0.156,0.094,west,12.0,No
2018/12/28,09:20,0.225,0.193,0.312,0.291,0.279,0.155,0.094,west,11.4,No
2018/12/28,09:30,0.225,0.191,0.313,0.291,0.280,0.155,0.095,west,11.7,No
2018/12/28,09:40,0.224,0.193,0.313,0.291,0.279,0.155,0.094,west,8.4,No
2018/12/28,09:50,0.225,0.192,0.312,0.291,0.280,0.155,0.094,west,10.0,No
2018/12/28,10:00,0.223,0.192,0.311,0.291,0.278,0.155,0.094,west,14.9,No
2018/12/28,10:10,0.224,0.192,0.312,0.291,0.278,0.155,0.094,west,13.6,No
2018/12/28,10:20,0.223,0.192,0.312,0.290,0.279,0.156,0.094,west-northwest,9.2,No
2018/12/28,10:30,0.223,0.192,0.311,0.291,0.278,0.156,0.095,west-northwest,9.2,No
2018/12/28,10:40,0.224,0.192,0.313,0.291,0.277,0.155,0.094,west,10.3,No
2018/12/28,10:50,0.224,0.193,0.312,0.291,0.279,0.156,0.095,west-northwest,9.2,No
2018/12/28,11:00,0.224,0.193,0.311,0.289,0.277,0.155,0.094,west,10.6,No
2018/12/28,11:10,0.224,0.192,0.311,0.291,0.277,0.156,0.094,west-northwest,11.7,No
2018/12/28,11:20,0.224,0.191,0.312,0.291,0.278,0.156,0.095,west,9.5,No
2018/12/28,11:30,0.224,0.192,0.311,0.291,0.280,0.155,0.095,west-northwest,10.6,No
2018/12/28,11:40,0.224,0.193,0.311,0.291,0.278,0.155,0.094,west,11.1,No
2018/12/28,11:50,0.224,0.192,0.310,0.292,0.277,0.156,0.095,west,12.0,No
2018/12/28,12:00,0.222,0.192,0.312,0.291,0.278,0.155,0.094,west,12.5,No
2018/12/28,12:10,0.223,0.192,0.311,0.291,0.277,0.156,0.094,west,10.9,No
2018/12/28,12:20,0.224,0.192,0.311,0.289,0.279,0.156,0.094,west-northwest,10.7,No
2018/12/28,12:30,0.224,0.193,0.311,0.291,0.278,0.155,0.094,west,9.2,No
2018/12/28,12:40,0.224,0.193,0.311,0.291,0.277,0.156,0.094,west-northwest,9.5,No
2018/12/28,12:50,0.225,0.194,0.312,0.290,0.278,0.156,0.094,west,10.3,No
2018/12/28,13:00,0.224,0.192,0.311,0.291,0.279,0.155,0.095,west,7.5,No
2018/12/28,13:10,0.224,0.193,0.312,0.293,0.278,0.156,0.094,west-northwest,6.3,No
2018/12/28,13:20,0.224,0.193,0.312,0.290,0.279,0.156,0.094,west,7.4,No
2018/12/28,13:30,0.224,0.192,0.311,0.292,0.280,0.157,0.095,west,6.3,No
2018/12/28,13:40,0.225,0.192,0.312,0.293,0.279,0.156,0.094,west,5.3,No
2018/12/28,13:50,0.224,0.192,0.311,0.293,0.278,0.156,0.095,west-northwest,3.0,No
2018/12/28,14:00,0.224,0.192,0.312,0.293,0.278,0.156,0.094,west-northwest,8.1,Yes
2018/12/28,14:10,0.225,0.193,0.312,0.291,0.279,0.157,0.095,west,8.5,Yes
2018/12/28,14:20,0.225,0.194,0.313,0.295,0.279,0.157,0.096,west-northwest,7.0,No
2018/12/28,14:30,0.224,0.194,0.309,0.296,0.279,0.157,0.096,west-northwest,6.2,No
2018/12/28,14:40,0.226,0.195,0.312,0.293,0.280,0.157,0.096,west,7.7,Yes
2018/12/28,14:50,0.226,0.195,0.313,0.294,0.279,0.157,0.097,west-northwest,5.8,No
2018/12/28,15:00,0.227,0.194,0.313,0.293,0.280,0.158,0.097,west-northwest,8.1,No
2018/12/28,15:10,0.226,0.196,0.313,0.295,0.278,0.158,0.097,northwest,6.6,No
2018/12/28,15:20,0.226,0.195,0.313,0.293,0.278,0.157,0.096,west-northwest,6.0,Yes
2018/12/28,15:30,0.226,0.195,0.313,0.294,0.280,0.158,0.096,northwest,4.3,No
2018/12/28,15:40,0.226,0.196,0.313,0.294,0.279,0.157,0.095,west-northwest,6.0,No
2018/12/28,15:50,0.225,0.195,0.313,0.291,0.279,0.157,0.096,west,5.9,Yes
2018/12/28,16:00,0.225,0.194,0.312,0.293,0.277,0.156,0.096,west,8.1,No
2018/12/28,16:10,0.226,0.193,0.311,0.292,0.277,0.156,0.096,west,9.0,No
2018/12/28,16:20,0.225,0.192,0.312,0.294,0.278,0.157,0.095,west,11.7,No
2018/12/28,16:30,0.225,0.192,0.312,0.293,0.278,0.156,0.095,west-northwest,9.3,No
2018/12/28,16:40,0.225,0.193,0.311,0.293,0.277,0.156,0.095,west-northwest,10.6,No
2018/12/28,16:50,0.224,0.192,0.312,0.291,0.277,0.157,0.095,west,11.4,No
2018/12/28,17:00,0.225,0.192,0.313,0.292,0.278,0.156,0.095,west-northwest,10.3,No
2018/12/28,17:10,0.224,0.191,0.312,0.292,0.277,0.157,0.095,west,10.9,No
2018/12/28,17:20,0.225,0.193,0.313,0.292,0.277,0.156,0.095,west,11.2,No
2018/12/28,17:30,0.225,0.193,0.313,0.293,0.278,0.156,0.095,west,11.5,No
2018/12/28,17:40,0.224,0.192,0.312,0.293,0.277,0.156,0.094,west,10.4,No
2018/12/28,17:50,0.224,0.194,0.312,0.293,0.276,0.156,0.095,west,10.0,No
2018/12/28,18:00,0.224,0.192,0.312,0.292,0.277,0.156,0.095,west,9.8,No
2018/12/28,18:10,0.224,0.193,0.312,0.291,0.277,0.156,0.094,west,10.7,No
2018/12/28,18:20,0.225,0.193,0.311,0.291,0.278,0.156,0.094,west,10.1,No
2018/12/28,18:30,0.224,0.192,0.313,0.292,0.277,0.156,0.096,west-northwest,10.3,No
2018/12/28,18:40,0.226,0.193,0.311,0.292,0.277,0.155,0.095,west,12.9,No
2018/12/28,18:50,0.223,0.191,0.311,0.291,0.278,0.157,0.094,west,12.3,No
2018/12/28,19:00,0.224,0.193,0.313,0.294,0.277,0.156,0.094,west,11.5,No
2018/12/28,19:10,0.224,0.193,0.313,0.291,0.277,0.156,0.094,west,8.5,No
2018/12/28,19:20,0.223,0.192,0.312,0.293,0.279,0.156,0.095,west,9.3,No
2018/12/28,19:30,0.223,0.192,0.312,0.292,0.278,0.155,0.094,west,10.6,No
2018/12/28,19:40,0.223,0.192,0.312,0.292,0.277,0.155,0.094,west,8.4,No
2018/12/28,19:50,0.224,0.192,0.312,0.292,0.277,0.156,0.094,west,9.0,No
2018/12/28,20:00,0.225,0.192,0.310,0.292,0.277,0.156,0.094,west,8.6,No
2018/12/28,20:10,0.224,0.192,0.311,0.292,0.277,0.156,0.094,west,7.9,No
2018/12/28,20:20,0.224,0.192,0.313,0.293,0.278,0.156,0.094,west,8.4,No
2018/12/28,20:30,0.224,0.193,0.312,0.292,0.276,0.155,0.095,west-southwest,8.2,No
2018/12/28,20:40,0.225,0.192,0.311,0.292,0.277,0.155,0.095,west,7.0,No
2018/12/28,20:50,0.224,0.192,0.310,0.291,0.276,0.155,0.094,west,6.2,No
2018/12/28,21:00,0.224,0.192,0.311,0.291,0.276,0.155,0.094,west,6.7,No
2018/12/28,21:10,0.224,0.192,0.312,0.290,0.277,0.155,0.094,west,5.6,No
2018/12/28,21:20,0.223,0.192,0.312,0.293,0.276,0.155,0.094,west,5.3,No
2018/12/28,21:30,0.224,0.192,0.312,0.291,0.276,0.156,0.094,west,6.6,No
2018/12/28,21:40,0.223,0.192,0.311,0.292,0.276,0.155,0.095,west,6.3,No
2018/12/28,21:50,0.224,0.193,0.312,0.292,0.275,0.155,0.094,west,7.3,No
2018/12/28,22:00,0.224,0.192,0.310,0.292,0.276,0.156,0.095,west,5.7,No
2018/12/28,22:10,0.224,0.192,0.311,0.293,0.277,0.155,0.094,west,9.0,No
2018/12/28,22:20,0.224,0.192,0.310,0.291,0.275,0.156,0.094,west-northwest,9.2,No
2018/12/28,22:30,0.224,0.192,0.310,0.292,0.278,0.155,0.095,west,10.3,No
2018/12/28,22:40,0.224,0.193,0.310,0.291,0.276,0.155,0.094,west,10.8,No
2018/12/28,22:50,0.223,0.192,0.312,0.293,0.278,0.156,0.094,west,9.3,No
2018/12/28,23:00,0.224,0.193,0.311,0.292,0.276,0.155,0.094,west,7.3,No
2018/12/28,23:10,0.223,0.192,0.311,0.292,0.277,0.156,0.095,west,7.5,No
2018/12/28,23:20,0.223,0.193,0.312,0.291,0.277,0.154,0.095,west,8.1,No
2018/12/28,23:30,0.224,0.192,0.311,0.290,0.276,0.156,0.095,west,7.4,No
2018/12/28,23:40,0.223,0.191,0.312,0.292,0.276,0.156,0.094,west,9.3,No
2018/12/28,23:50,0.224,0.193,0.310,0.292,0.277,0.155,0.094,west-northwest,6.3,No
